GW6910 Weather Reports


Display with metric or nautical units.
time (UTC)temp
F
wind
direction
speed
MPH
gust
MPH
rain 1hr
in
rain 24hr
in
rain mn
in
humidity
%
barometer
mb
20260507113031 55 86 1.0 4.0 0.00 0.00 0.00 67 1015.9
20260507112511 55 15 2.0 2.0 0.00 0.00 0.00 67 1015.9
20260507112008 55 216 1.0 3.0 0.00 0.00 0.00 67 1015.8
20260507111520 55 272 0.0 3.0 0.00 0.00 0.00 66 1015.8
20260507111010 56 189 1.0 4.0 0.00 0.00 0.00 68 1015.8
20260507110511 55 190 1.0 4.0 0.00 0.00 0.00 67 1015.9
20260507110003 55 178 1.0 3.0 0.00 0.00 0.00 66 1015.9
20260507105504 56 277 1.0 3.0 0.00 0.00 0.00 68 1015.9
20260507105003 56 200 1.0 3.0 0.00 0.00 0.00 67 1015.9
20260507104507 56 169 1.0 4.0 0.00 0.00 0.00 67 1015.9
20260507104006 56 184 2.0 4.0 0.00 0.00 0.00 67 1015.9
20260507103506 55 286 0.0 3.0 0.00 0.00 0.00 70 1015.9
20260507103011 54 92 0.0 4.0 0.00 0.00 0.00 69 1016.0
20260507102507 54 128 1.0 4.0 0.00 0.00 0.00 72 1016.0
20260507102009 54 309 0.0 3.0 0.00 0.00 0.00 72 1016.0
20260507101522 54 202 1.0 3.0 0.00 0.00 0.00 72 1016.0
20260507101012 54 90 1.0 2.0 0.00 0.00 0.00 72 1015.9
20260507100507 53 285 0.0 2.0 0.00 0.00 0.00 73 1015.9
20260507100032 53 351 0.0 2.0 0.00 0.00 0.00 72 1015.9
20260507095511 53 269 0.0 3.0 0.00 0.00 0.00 73 1015.8
20260507095004 53 67 1.0 3.0 0.00 0.00 0.00 73 1015.8
20260507094508 53 54 1.0 3.0 0.00 0.00 0.00 72 1015.8
20260507094003 52 54 1.0 4.0 0.00 0.00 0.00 73 1015.7
20260507093504 52 23 1.0 6.0 0.00 0.00 0.00 73 1015.7
20260507093013 53 60 1.0 6.0 0.00 0.00 0.00 75 1015.8
20260507092509 52 346 1.0 3.0 0.00 0.00 0.00 75 1015.8
20260507092008 52 254 2.0 4.0 0.00 0.00 0.00 75 1015.7
20260507091517 52 282 1.0 7.0 0.00 0.00 0.00 75 1015.7
20260507091008 52 78 4.0 7.0 0.00 0.00 0.00 75 1015.7
20260507090510 52 360 2.0 4.0 0.00 0.00 0.00 75 1015.7
20260507090020 52 47 1.0 4.0 0.00 0.00 0.00 75 1015.6
20260507085508 52 61 2.0 4.0 0.00 0.00 0.00 75 1015.6
20260507085009 52 352 2.0 4.0 0.00 0.00 0.00 75 1015.5
20260507084543 51 34 1.0 5.0 0.00 0.00 0.00 76 1015.5
20260507084010 51 340 2.0 5.0 0.00 0.00 0.00 75 1015.5
20260507083506 51 57 2.0 5.0 0.00 0.00 0.00 75 1015.5
20260507083017 51 55 2.0 5.0 0.00 0.00 0.00 75 1015.5
20260507082504 50 74 2.0 6.0 0.00 0.00 0.00 76 1015.5
20260507082006 50 19 2.0 7.0 0.00 0.00 0.00 77 1015.5
20260507081514 50 78 3.0 7.0 0.00 0.00 0.00 77 1015.5
20260507081012 50 64 3.0 5.0 0.00 0.00 0.00 76 1015.4
20260507080507 50 42 3.0 5.0 0.00 0.00 0.00 77 1015.4
20260507080017 50 34 2.0 7.0 0.00 0.00 0.00 76 1015.4
20260507075508 50 329 2.0 7.0 0.00 0.00 0.00 78 1015.3
20260507075015 50 289 2.0 6.0 0.00 0.00 0.00 78 1015.2
20260507074524 49 44 3.0 6.0 0.00 0.00 0.00 78 1015.2
20260507074008 49 21 2.0 5.0 0.00 0.00 0.00 78 1015.1
20260507073508 50 338 2.0 4.0 0.00 0.00 0.00 79 1015.1
20260507073027 49 64 3.0 5.0 0.00 0.00 0.00 78 1015.1
20260507072509 49 314 2.0 5.0 0.00 0.00 0.00 80 1015.0
20260507072003 49 30 2.0 4.0 0.00 0.00 0.00 79 1014.9
20260507071514 49 23 2.0 4.0 0.00 0.00 0.00 80 1014.9
20260507071008 49 13 2.0 6.0 0.00 0.00 0.00 80 1014.9
20260507070507 49 80 2.0 6.0 0.00 0.00 0.00 80 1014.9
20260507070021 49 59 3.0 9.0 0.00 0.00 0.00 80 1014.9
20260507065511 49 327 5.0 9.0 0.00 0.00 0.00 80 1014.7
20260507065006 49 74 1.0 5.0 0.00 0.00 0.00 81 1014.7
20260507064518 49 60 2.0 5.0 0.00 0.00 0.00 80 1014.6
20260507064010 49 65 2.0 5.0 0.00 0.00 0.00 81 1014.6
20260507063513 49 40 3.0 5.0 0.00 0.00 0.00 81 1014.6
20260507063027 49 54 3.0 5.0 0.00 0.00 0.00 81 1014.6
20260507062508 49 75 1.0 3.0 0.00 0.00 0.00 82 1014.6
20260507062010 49 5 1.0 4.0 0.00 0.00 0.00 83 1014.5
20260507061534 49 28 1.0 4.0 0.00 0.00 0.00 83 1014.4
20260507061010 49 360 0.0 4.0 0.00 0.00 0.00 83 1014.4
20260507060503 48 11 1.0 4.0 0.00 0.00 0.00 83 1014.3
20260507060014 48 42 2.0 4.0 0.00 0.00 0.00 83 1014.3
20260507055508 48 23 2.0 4.0 0.00 0.00 0.00 84 1014.3
20260507055007 48 25 1.0 3.0 0.00 0.00 0.00 85 1014.2
20260507054518 48 9 1.0 3.0 0.00 0.00 0.00 85 1014.2
20260507054010 48 10 1.0 3.0 0.00 0.00 0.00 85 1014.1
20260507053517 48 340 0.0 2.0 0.00 0.00 0.00 85 1014.0
20260507053023 48 352 0.0 2.0 0.00 0.00 0.00 85 1014.0
20260507052511 48 9 0.0 2.0 0.00 0.00 0.00 85 1014.0
20260507052011 48 9 0.0 2.0 0.00 0.00 0.00 86 1013.9
20260507051524 47 350 0.0 2.0 0.00 0.00 0.00 86 1013.8
20260507051006 47 301 0.0 2.0 0.00 0.00 0.00 87 1013.8
20260507050505 47 291 0.0 2.0 0.00 0.00 0.00 87 1013.8
20260507050034 47 302 0.0 2.0 0.00 0.00 0.00 87 1013.7
20260507045508 47 296 0.0 2.0 0.00 0.00 0.00 87 1013.6
20260507045007 47 59 0.0 2.0 0.00 0.00 0.00 87 1013.5
20260507044522 47 59 0.0 2.0 0.00 0.00 0.00 87 1013.5
20260507044007 47 59 1.0 2.0 0.00 0.00 0.00 87 1013.4
20260507043507 47 38 0.0 2.0 0.00 0.00 0.00 87 1013.3
20260507043021 47 38 0.0 2.0 0.00 0.00 0.00 87 1013.2
20260507042509 47 38 0.0 2.0 0.00 0.00 0.00 87 1013.2
20260507042014 47 70 0.0 2.0 0.00 0.00 0.00 87 1013.1
20260507041504 47 71 0.0 2.0 0.00 0.01 0.00 87 1013.1
20260507041003 47 70 0.0 2.0 0.00 0.01 0.00 87 1013.1
20260507040506 47 63 0.0 2.0 0.00 0.01 0.00 87 1013.1
20260507040013 47 63 0.0 2.0 0.00 0.01 0.00 87 1013.1
20260507035505 47 63 0.0 2.0 0.00 0.01 0.00 87 1013.1
20260507035007 47 44 0.0 2.0 0.00 0.01 0.00 87 1013.0
20260507034516 47 30 0.0 2.0 0.00 0.01 0.00 87 1012.9
20260507034013 47 301 0.0 2.0 0.00 0.01 0.00 88 1013.0
20260507033507 47 313 0.0 2.0 0.00 0.01 0.00 88 1012.9
20260507033029 47 313 0.0 2.0 0.00 0.01 0.00 88 1013.0
20260507032511 47 227 0.0 2.0 0.00 0.01 0.00 88 1012.9
20260507032011 47 227 0.0 2.0 0.00 0.01 0.00 88 1013.0
20260507031528 47 228 0.0 2.0 0.00 0.01 0.00 88 1012.9
20260507031011 47 228 0.0 2.0 0.00 0.01 0.00 88 1012.8
20260507030512 47 213 0.0 2.0 0.00 0.01 0.00 88 1012.8
20260507030006 47 202 0.0 2.0 0.00 0.01 0.00 88 1012.8
20260507025503 47 219 0.0 1.0 0.00 0.01 0.00 87 1012.8
20260507025012 47 209 0.0 2.0 0.00 0.01 0.00 87 1012.8
20260507024516 47 191 0.0 2.0 0.00 0.01 0.00 87 1012.8
20260507024009 47 219 0.0 2.0 0.00 0.01 0.00 87 1012.8
20260507023509 47 195 0.0 3.0 0.00 0.01 0.00 87 1012.8
20260507023016 47 195 0.0 3.0 0.00 0.01 0.00 87 1012.7
20260507022509 47 209 0.0 6.0 0.00 0.01 0.00 87 1012.7
20260507022009 47 221 3.0 6.0 0.00 0.01 0.00 86 1012.6
20260507021536 47 268 1.0 3.0 0.00 0.01 0.00 87 1012.6
20260507021011 47 246 0.0 2.0 0.00 0.01 0.00 87 1012.5
20260507020511 47 225 0.0 2.0 0.00 0.01 0.00 87 1012.5
20260507020026 47 195 0.0 2.0 0.00 0.01 0.00 87 1012.4
20260507015509 47 327 0.0 2.0 0.00 0.01 0.00 87 1012.5
20260507015011 47 192 0.0 2.0 0.00 0.01 0.00 87 1012.4
20260507014508 47 250 0.0 4.0 0.00 0.01 0.00 87 1012.4
20260507014005 47 250 1.0 4.0 0.00 0.01 0.00 87 1012.4
20260507013507 47 243 2.0 6.0 0.00 0.01 0.00 86 1012.4
20260507013015 47 265 3.0 6.0 0.00 0.01 0.00 86 1012.4
20260507012506 47 277 1.0 3.0 0.00 0.01 0.00 86 1012.3
20260507012009 47 211 0.0 4.0 0.00 0.01 0.00 86 1012.3
20260507011528 47 323 2.0 4.0 0.00 0.01 0.00 86 1012.3
20260507011007 47 268 1.0 4.0 0.00 0.01 0.00 86 1012.4
20260507010512 47 251 1.0 4.0 0.00 0.01 0.00 86 1012.3
20260507010037 47 240 2.0 4.0 0.00 0.01 0.00 86 1012.3
20260507005507 47 234 1.0 2.0 0.00 0.01 0.00 85 1012.2
20260507005017 47 280 0.0 3.0 0.00 0.01 0.00 85 1012.2
20260507004526 47 327 0.0 3.0 0.00 0.01 0.00 84 1012.2
20260507004011 47 310 1.0 3.0 0.00 0.01 0.00 84 1012.2
20260507003508 47 291 0.0 2.0 0.00 0.01 0.00 84 1012.2
20260507003012 47 260 0.0 2.0 0.00 0.01 0.00 83 1012.2
20260507002507 47 281 0.0 3.0 0.00 0.01 0.00 83 1012.1
20260507002006 47 340 1.0 3.0 0.00 0.01 0.00 83 1012.1
20260507001519 47 348 0.0 2.0 0.00 0.01 0.00 83 1012.1
20260507001008 47 312 0.0 2.0 0.00 0.02 0.00 82 1012.0
20260507000512 47 317 0.0 3.0 0.00 0.02 0.00 82 1012.0
20260507000023 47 265 1.0 3.0 0.00 0.02 0.00 82 1012.0
20260506235507 47 249 1.0 3.0 0.00 0.02 0.00 82 1012.0
20260506235011 48 234 0.0 6.0 0.00 0.02 0.00 82 1012.0
20260506234526 47 232 2.0 6.0 0.00 0.02 0.00 82 1012.0
20260506234012 47 279 0.0 3.0 0.00 0.02 0.00 82 1012.0
20260506233512 47 264 0.0 3.0 0.00 0.02 0.00 82 1012.0
20260506233028 48 271 0.0 5.0 0.00 0.02 0.00 82 1011.9
20260506232507 47 286 1.0 5.0 0.00 0.02 0.00 82 1012.0
20260506232008 47 253 1.0 2.0 0.00 0.02 0.00 82 1011.9
20260506231522 48 259 0.0 3.0 0.00 0.02 0.00 82 1012.0
20260506231007 48 252 0.0 3.0 0.00 0.02 0.00 82 1012.0
20260506230506 48 260 1.0 3.0 0.00 0.02 0.00 82 1012.0
20260506230022 48 248 1.0 3.0 0.00 0.02 0.00 82 1011.9
20260506225511 48 265 2.0 3.0 0.00 0.02 0.00 82 1012.0
20260506225008 48 273 1.0 4.0 0.00 0.02 0.00 82 1011.9
20260506224523 48 319 1.0 4.0 0.00 0.02 0.00 81 1011.9
20260506224007 48 265 1.0 3.0 0.00 0.02 0.00 82 1011.9
20260506223515 48 310 1.0 3.0 0.00 0.02 0.00 82 1011.9
20260506223026 48 53 1.0 3.0 0.00 0.02 0.00 82 1011.9
20260506222512 48 348 0.0 2.0 0.00 0.02 0.00 83 1011.9
20260506222015 48 31 1.0 3.0 0.00 0.02 0.00 82 1011.9
20260506221526 48 10 1.0 3.0 0.00 0.02 0.00 82 1011.8
20260506221011 48 344 0.0 2.0 0.00 0.02 0.00 82 1011.7
20260506220504 48 349 0.0 2.0 0.00 0.02 0.00 82 1011.7
20260506220027 48 319 0.0 2.0 0.00 0.02 0.00 82 1011.6
20260506215506 48 352 0.0 2.0 0.00 0.02 0.02 82 1011.5
20260506215013 48 34 0.0 2.0 0.00 0.02 0.02 82 1011.5
20260506214522 48 287 0.0 2.0 0.00 0.02 0.02 83 1011.4
20260506214008 48 311 0.0 2.0 0.00 0.02 0.02 82 1011.4
20260506213510 48 5 0.0 2.0 0.00 0.02 0.02 82 1011.3
20260506213030 48 5 0.0 2.0 0.00 0.02 0.02 82 1011.2
20260506212508 49 5 0.0 2.0 0.00 0.02 0.02 81 1011.1
20260506212018 49 15 0.0 2.0 0.00 0.02 0.02 81 1011.1
20260506211529 49 25 1.0 2.0 0.00 0.02 0.02 82 1011.1
20260506211010 49 55 0.0 2.0 0.00 0.03 0.02 82 1011.1
20260506210511 49 19 0.0 2.0 0.00 0.03 0.02 81 1011.1
20260506210034 49 19 0.0 2.0 0.00 0.03 0.02 81 1011.2
20260506205508 49 19 0.0 2.0 0.00 0.04 0.02 81 1010.9
20260506205008 49 9 0.0 2.0 0.00 0.06 0.02 81 1011.0
20260506204519 49 11 0.0 3.0 0.00 0.07 0.02 80 1010.9
20260506204010 49 360 1.0 3.0 0.00 0.10 0.02 79 1010.9
20260506203511 49 82 1.0 2.0 0.00 0.11 0.02 79 1010.9
20260506203028 49 13 1.0 2.0 0.00 0.12 0.02 79 1010.9
20260506202510 49 74 0.0 4.0 0.00 0.14 0.02 79 1010.8
20260506202012 50 13 2.0 4.0 0.00 0.16 0.02 78 1010.8
20260506201533 50 56 1.0 5.0 0.00 0.18 0.02 78 1010.7
20260506201009 50 313 2.0 8.0 0.00 0.18 0.02 78 1010.7
20260506200509 50 11 3.0 8.0 0.00 0.19 0.02 78 1010.6
20260506200028 50 75 3.0 5.0 0.00 0.20 0.02 78 1010.6
20260506195511 50 61 2.0 5.0 0.00 0.20 0.02 78 1010.6
20260506195010 50 5 2.0 5.0 0.00 0.20 0.02 78 1010.6
20260506194528 50 346 1.0 5.0 0.00 0.20 0.02 78 1010.5
20260506194010 50 280 1.0 3.0 0.00 0.20 0.02 79 1010.4
20260506193507 50 20 1.0 2.0 0.00 0.20 0.02 79 1010.3
20260506193022 50 360 1.0 2.0 0.00 0.21 0.02 79 1010.2
20260506192508 50 348 1.0 2.0 0.00 0.21 0.02 78 1010.2
20260506192008 50 16 0.0 2.0 0.00 0.21 0.02 78 1010.1
20260506191527 50 13 0.0 2.0 0.00 0.22 0.02 78 1010.0
20260506191006 50 24 1.0 2.0 0.00 0.22 0.02 78 1010.0
20260506190504 51 28 1.0 3.0 0.00 0.22 0.02 77 1010.0
20260506190010 51 5 1.0 3.0 0.00 0.22 0.02 77 1009.9
20260506185503 51 351 0.0 2.0 0.00 0.22 0.02 77 1009.8
20260506185004 51 326 1.0 2.0 0.00 0.22 0.02 77 1010.0
20260506184507 51 5 1.0 4.0 0.00 0.22 0.02 76 1009.8
20260506184004 51 320 1.0 4.0 0.00 0.22 0.02 77 1009.7
20260506183508 51 317 1.0 5.0 0.00 0.22 0.02 77 1009.7
20260506183006 51 309 1.0 5.0 0.00 0.22 0.02 77 1009.6
20260506182504 51 22 1.0 3.0 0.00 0.23 0.02 77 1009.5
20260506182004 51 340 1.0 5.0 0.00 0.23 0.02 77 1009.5
20260506181503 51 26 3.0 5.0 0.00 0.23 0.02 76 1009.5
20260506181004 52 242 1.0 3.0 0.00 0.23 0.02 77 1009.3
20260506180503 52 85 1.0 3.0 0.00 0.23 0.02 77 1009.3
20260506180014 52 352 1.0 3.0 0.00 0.24 0.02 77 1009.3
20260506175503 52 319 1.0 5.0 0.00 0.24 0.02 77 1009.1
20260506175004 52 323 1.0 5.0 0.00 0.24 0.02 77 1009.1
20260506174508 52 346 2.0 5.0 0.00 0.24 0.02 76 1009.1
20260506174008 52 39 1.0 4.0 0.00 0.24 0.02 77 1009.1
20260506173504 52 14 2.0 6.0 0.00 0.24 0.02 77 1009.1
20260506173009 52 51 1.0 6.0 0.00 0.24 0.02 77 1009.2
20260506172504 52 45 2.0 6.0 0.00 0.24 0.02 76 1009.2
20260506172005 53 360 2.0 5.0 0.00 0.24 0.02 76 1009.1
20260506171518 53 332 2.0 5.0 0.00 0.24 0.02 75 1009.0
20260506171007 53 348 2.0 5.0 0.00 0.24 0.02 76 1009.0
20260506170506 53 61 1.0 3.0 0.00 0.24 0.02 78 1009.0
20260506170008 53 319 1.0 3.0 0.00 0.24 0.02 78 1009.0
20260506165503 53 336 1.0 3.0 0.00 0.24 0.02 78 1009.0
20260506165004 53 336 2.0 3.0 0.00 0.24 0.02 78 1009.0
20260506164511 53 293 1.0 5.0 0.00 0.24 0.02 78 1008.9
20260506164008 53 5 1.0 5.0 0.00 0.24 0.02 78 1008.9
20260506163505 53 288 2.0 6.0 0.00 0.25 0.02 77 1008.9
20260506163012 53 350 2.0 6.0 0.00 0.25 0.02 77 1008.8
20260506162503 53 328 3.0 6.0 0.00 0.25 0.02 77 1008.9
20260506162008 53 306 1.0 6.0 0.00 0.25 0.02 77 1008.8
20260506161512 53 341 2.0 6.0 0.00 0.25 0.02 77 1008.8
20260506161007 53 30 3.0 9.0 0.00 0.25 0.02 77 1008.9
20260506160508 53 107 1.0 9.0 0.00 0.25 0.02 77 1008.9
20260506160011 53 334 3.0 9.0 0.00 0.25 0.02 75 1008.9
20260506155506 54 71 3.0 9.0 0.00 0.26 0.02 75 1008.8
20260506155003 54 309 5.0 9.0 0.00 0.26 0.02 73 1008.8
20260506154508 54 11 2.0 9.0 0.00 0.26 0.02 74 1008.8
20260506154004 54 284 4.0 9.0 0.00 0.27 0.02 74 1008.7
20260506153509 54 350 4.0 8.0 0.00 0.27 0.02 75 1008.7
20260506153011 54 53 2.0 8.0 0.00 0.27 0.02 76 1008.6
20260506152508 53 9 2.0 9.0 0.00 0.28 0.02 76 1008.5
20260506152010 54 339 4.0 9.0 0.00 0.28 0.02 76 1008.6
20260506151515 54 57 5.0 9.0 0.00 0.28 0.02 74 1008.5
20260506151010 55 43 3.0 9.0 0.00 0.28 0.02 75 1008.5
20260506150506 54 352 3.0 8.0 0.00 0.28 0.02 75 1008.3
20260506150025 54 62 3.0 8.0 0.00 0.29 0.02 77 1008.4
20260506145507 54 10 3.0 8.0 0.00 0.29 0.02 77 1008.3
20260506145005 54 74 3.0 8.0 0.00 0.29 0.02 77 1008.4
20260506144515 53 360 3.0 8.0 0.00 0.29 0.02 77 1008.4
20260506144014 54 336 3.0 8.0 0.00 0.29 0.02 79 1008.4
20260506143505 53 49 2.0 8.0 0.00 0.29 0.02 80 1008.4
20260506143033 53 27 3.0 9.0 0.00 0.29 0.02 80 1008.5
20260506142509 53 305 3.0 9.0 0.00 0.29 0.02 79 1008.5
20260506142008 54 306 2.0 5.0 0.00 0.29 0.02 80 1008.5
20260506141514 54 352 2.0 5.0 0.00 0.29 0.02 80 1008.4
20260506141008 53 280 1.0 7.0 0.00 0.29 0.02 81 1008.4
20260506140505 53 328 2.0 7.0 0.00 0.30 0.02 80 1008.3
20260506140014 53 33 3.0 6.0 0.00 0.30 0.02 80 1008.4
20260506135506 53 19 2.0 6.0 0.00 0.30 0.02 80 1008.4
20260506135005 53 360 2.0 6.0 0.00 0.30 0.02 81 1008.4
20260506134514 53 321 1.0 4.0 0.00 0.30 0.02 82 1008.5
20260506134008 52 294 1.0 4.0 0.00 0.31 0.02 82 1008.5
20260506133510 52 244 2.0 4.0 0.00 0.31 0.02 82 1008.5
20260506133018 52 46 2.0 4.0 0.00 0.32 0.02 82 1008.5
20260506132509 53 310 1.0 7.0 0.00 0.32 0.02 82 1008.5
20260506132009 53 30 1.0 7.0 0.00 0.33 0.02 83 1008.4
20260506131516 53 263 1.0 7.0 0.00 0.33 0.02 82 1008.3
20260506131008 53 11 2.0 7.0 0.00 0.33 0.02 82 1008.3
20260506130510 53 327 1.0 6.0 0.00 0.33 0.02 83 1008.2
20260506130016 53 173 2.0 7.0 0.00 0.33 0.02 83 1008.1
20260506125507 53 26 3.0 7.0 0.00 0.33 0.02 81 1008.1
20260506125006 53 344 1.0 7.0 0.00 0.33 0.02 82 1008.0
20260506124516 53 19 3.0 7.0 0.00 0.33 0.02 82 1008.0
20260506124008 53 36 1.0 7.0 0.00 0.34 0.02 84 1008.0
20260506123508 53 242 2.0 5.0 0.00 0.34 0.02 82 1008.0
20260506123019 53 350 1.0 5.0 0.00 0.35 0.02 82 1007.9
20260506122507 53 57 2.0 5.0 0.00 0.36 0.02 81 1007.9
20260506122012 53 60 2.0 4.0 0.00 0.37 0.02 80 1007.9
20260506121515 53 9 2.0 4.0 0.00 0.37 0.02 81 1007.9
20260506121005 53 16 1.0 6.0 0.00 0.37 0.02 81 1007.7
20260506120512 53 289 2.0 8.0 0.00 0.37 0.02 82 1007.7
20260506120016 53 265 3.0 8.0 0.00 0.37 0.02 80 1007.7
20260506115508 54 22 2.0 8.0 0.00 0.37 0.02 80 1007.7
20260506115010 53 72 3.0 8.0 0.00 0.37 0.02 79 1007.7
20260506114521 54 352 3.0 6.0 0.00 0.37 0.02 80 1007.7
20260506114009 53 58 3.0 6.0 0.00 0.37 0.02 80 1007.6
20260506113509 53 30 3.0 7.0 0.00 0.37 0.02 79 1007.6